Location: Chervonnoye
(48.6000°N, 34.4000°E)
Time: 08:29:54
(UTC+00:00)

NOAA 15 - Pass Details

Date: 05 December 2021
Orbit: 797 x 812 km, 98.7° (Epoch: 26 January)

Event Time Altitude Azimuth Distance (km) Brightness Sun altitude
Rises 03:58:09 0° 32° (NNE) 3,318 8.0 -12.6°
Reaches altitude 10° 04:02:01 10° 60° (ENE) 2,379 7.6 -12.0°
Maximum altitude 04:04:15 13° 86° (E) 2,192 7.9 -11.7°
Drops below altitude 10° 04:06:28 10° 111° (ESE) 2,370 8.6 -11.3°
Sets 04:10:17 0° 140° (SE) 3,293 9.0 -10.8°
